Phoenix Deer Valley, AZ

1:49 PM MST on August 18, 2017 (GMT -0700)
Phoenix-Deer Valley Municipal

Weather History for KDVT - March, 2013

Change the Weather History Date:

Tuesday, March 26, 2013

  Actual Average Record
Temperature  
Mean Temperature 70 °F -  
Max Temperature 84 °F 75 °F 86 °F (2015)
Min Temperature 55 °F 52 °F 41 °F (2005)
Cooling Degree Days 4    
Growing Degree Days 20 (Base 50)    
Moisture  
Dew Point 24 °F    
Average Humidity 20    
Maximum Humidity 33    
Minimum Humidity 9    
Precipitation  
Precipitation 0.00 in - - ()
Sea Level Pressure  
Sea Level Pressure 29.83 in    
Wind  
Wind Speed 6 mph (ESE)    
Max Wind Speed 13 mph    
Max Gust Speed 17 mph    
Visibility 10 miles    
Events      
Averages and records for this station are not official NWS values.
T = Trace of Precipitation, MM = Missing Value Source: NWS Daily Summary

Daily Weather History Graph

Daily Weather History Graph

Search for Another Location

Airport or City:

Trip Planner

Search our weather history database for the weather conditions in past years. The results will help you decide how hot, cold, wet, or windy it might be!

Date:

Astronomy

Mar. 26, 2013 Rise Set
Actual Time 6:23 AM MST 6:44 PM MST
Civil Twilight 5:58 AM MST 7:09 PM MST
Nautical Twilight 5:29 AM MST 7:38 PM MST
Astronomical Twilight 4:59 AM MST 8:08 PM MST
Moon 6:24 PM MST (3/26) 5:41 AM MST (3/26)
Length of Visible Light 13h 11m
Length of Day
12h 21m
Full, 100% of the Moon is Illuminated
Mar 26
Full
Mar 27
Full
Apr 2
Last Quarter
Apr 10
New
Apr 18
First Quarter

Hourly Weather History & Observations

Time (MST) Temp. Dew Point Humidity Pressure Visibility Wind Dir Wind Speed Gust Speed Precip Events Conditions
12:53 AM 64.0 °F 21.9 °F 20% 29.86 in 10.0 mi NE 12.7 mph - N/A   Clear
1:53 AM 63.0 °F 21.9 °F 21% 29.86 in 10.0 mi NE 8.1 mph - N/A   Clear
2:53 AM 63.0 °F 21.9 °F 21% 29.84 in 10.0 mi NE 8.1 mph - N/A   Clear
3:53 AM 60.1 °F 23.0 °F 24% 29.84 in 10.0 mi Calm Calm - N/A   Clear
4:53 AM 57.0 °F 26.1 °F 30% 29.85 in 10.0 mi Calm Calm - N/A   Clear
5:53 AM 55.0 °F 26.1 °F 33% 29.87 in 10.0 mi Calm Calm - N/A   Clear
6:53 AM 57.9 °F 26.1 °F 30% 29.88 in 10.0 mi Calm Calm - N/A   Clear
7:53 AM 64.9 °F 25.0 °F 22% 29.88 in 10.0 mi ENE 4.6 mph - N/A   Clear
8:53 AM 66.9 °F 26.1 °F 21% 29.90 in 10.0 mi Calm Calm - N/A   Clear
9:53 AM 72.0 °F 26.1 °F 18% 29.89 in 10.0 mi SE 3.5 mph - N/A   Clear
10:53 AM 73.9 °F 24.1 °F 16% 29.88 in 10.0 mi SE 10.4 mph 16.1 mph N/A   Clear
11:53 AM 77.0 °F 21.9 °F 13% 29.87 in 10.0 mi ESE 8.1 mph - N/A   Clear
12:53 PM 79.0 °F 23.0 °F 13% 29.84 in 10.0 mi SE 11.5 mph - N/A   Clear
1:53 PM 81.0 °F 23.0 °F 12% 29.82 in 10.0 mi SE 8.1 mph 16.1 mph N/A   Clear
2:53 PM 82.9 °F 19.9 °F 10% 29.79 in 10.0 mi WSW 9.2 mph - N/A   Clear
3:53 PM 82.9 °F 19.0 °F 9% 29.77 in 10.0 mi Calm Calm - N/A   Clear
4:53 PM 84.0 °F 19.0 °F 9% 29.75 in 10.0 mi South 6.9 mph 17.3 mph N/A   Clear
5:53 PM 82.0 °F 19.9 °F 10% 29.75 in 10.0 mi SSW 3.5 mph - N/A   Clear
6:53 PM 79.0 °F 21.0 °F 12% 29.75 in 10.0 mi WNW 3.5 mph - N/A   Clear
7:53 PM 73.9 °F 24.1 °F 16% 29.75 in 10.0 mi Calm Calm - N/A   Clear
8:53 PM 66.9 °F 27.0 °F 22% 29.78 in 10.0 mi Calm Calm - N/A   Clear
9:53 PM 62.1 °F 28.9 °F 29% 29.80 in 10.0 mi ESE 3.5 mph - N/A   Clear
10:53 PM 60.1 °F 30.0 °F 32% 29.81 in 10.0 mi ESE 3.5 mph - N/A   Clear
11:53 PM 57.9 °F 28.9 °F 33% 29.81 in 10.0 mi Calm Calm - N/A   Clear